Rochester, MN

5:59 AM CDT on August 17, 2017 (GMT -0500)
Rochester International

Weather History for KRST - January, 2013

Change the Weather History Date:

Sunday, January 20, 2013

  Actual Average Record
Temperature  
Mean Temperature 7 °F 15 °F  
Max Temperature 13 °F 23 °F 47 °F (1944)
Min Temperature 1 °F 7 °F -26 °F (1970)
Degree Days  
Heating Degree Days 58 50  
Month to date heating degree days 903 991  
Since 1 July heating degree days 3621 4069  
Cooling Degree Days 0 0  
Month to date cooling degree days 0 0  
Year to date cooling degree days 0 0  
Moisture  
Dew Point -4 °F    
Average Humidity 62    
Maximum Humidity 76    
Minimum Humidity 48    
Precipitation  
Precipitation T in 0.03 in 0.19 in (1974)
Month to date precipitation 0.23 0.55  
Year to date precipitation 0.23 0.55  
Snow  
Snow T in 0.40 in 2.80 in (2012)
Month to date snowfall 0.3 7.5  
Since 1 July snowfall 14.8 26.9  
Snow Depth 0.00 in    
Sea Level Pressure  
Sea Level Pressure 30.31 in    
Wind  
Wind Speed 15 mph (WNW)    
Max Wind Speed 24 mph    
Max Gust Speed 31 mph    
Visibility 9 miles    
Events Snow    
T = Trace of Precipitation, MM = Missing Value Source: NWS Daily Summary

Daily Weather History Graph

Daily Weather History Graph

Search for Another Location

Airport or City:

Trip Planner

Search our weather history database for the weather conditions in past years. The results will help you decide how hot, cold, wet, or windy it might be!

Date:

Astronomy

Jan. 20, 2013 Rise Set
Actual Time 7:37 AM CST 5:04 PM CST
Civil Twilight 7:06 AM CST 5:36 PM CST
Nautical Twilight 6:31 AM CST 6:11 PM CST
Astronomical Twilight 5:56 AM CST 6:45 PM CST
Moon 12:06 PM CST (1/20) 2:09 AM CST (1/20)
Length of Visible Light 10h 30m
Length of Day
9h 26m
Waxing Gibbous, 66% of the Moon is Illuminated
Jan 20
Waxing Gibbous
Jan 26
Full
Feb 3
Last Quarter
Feb 10
New
Feb 17
First Quarter

Hourly Weather History & Observations

Time (CST) Temp. Windchill Dew Point Humidity Pressure Visibility Wind Dir Wind Speed Gust Speed Precip Events Conditions
12:54 AM 3.0 °F -18.3 °F -6.0 °F 66% 30.24 in 10.0 mi NW 20.7 mph 27.6 mph N/A   Partly Cloudy
1:54 AM 1.4 °F -18.8 °F -5.8 °F 72% 30.20 in 10.0 mi NW 17.3 mph - N/A   Partly Cloudy
2:54 AM 1.9 °F -14.7 °F -6.0 °F 69% 30.31 in 10.0 mi WNW 11.5 mph - N/A   Clear
3:54 AM 1.9 °F -14.7 °F -6.0 °F 69% 30.32 in 10.0 mi WNW 11.5 mph - N/A   Clear
4:54 AM 1.0 °F -18.7 °F -6.0 °F 72% 30.33 in 10.0 mi NW 16.1 mph - N/A   Clear
5:54 AM 1.0 °F -16.6 °F -6.0 °F 72% 30.34 in 10.0 mi NW 12.7 mph - N/A   Clear
6:54 AM 1.0 °F -16.6 °F -6.0 °F 72% 30.36 in 10.0 mi NW 12.7 mph - N/A   Clear
7:54 AM 1.9 °F -13.8 °F -6.0 °F 69% 30.36 in 10.0 mi NNW 10.4 mph - N/A   Scattered Clouds
8:54 AM 1.9 °F -13.8 °F -5.1 °F 72% 30.40 in 10.0 mi WNW 10.4 mph - N/A   Clear
9:54 AM 3.9 °F -12.2 °F -4.0 °F 70% 30.41 in 10.0 mi WNW 11.5 mph - N/A   Mostly Cloudy
10:54 AM 6.1 °F -9.5 °F -4.0 °F 63% 30.42 in 10.0 mi WNW 11.5 mph - N/A   Scattered Clouds
11:54 AM 8.6 °F -7.0 °F -2.2 °F 62% 30.30 in 10.0 mi WNW 12.7 mph - N/A   Partly Cloudy
12:54 PM 10.0 °F -7.1 °F -4.0 °F 53% 30.40 in 10.0 mi NW 16.1 mph - N/A   Partly Cloudy
1:54 PM 12.0 °F -3.4 °F -2.0 °F 53% 30.37 in 10.0 mi NW 13.8 mph - N/A   Scattered Clouds
2:54 PM 12.0 °F -5.1 °F -4.0 °F 49% 30.36 in 10.0 mi NW 17.3 mph 21.9 mph N/A   Mostly Cloudy
3:54 PM 10.9 °F -5.9 °F -2.9 °F 54% 30.35 in 10.0 mi WNW 16.1 mph 24.2 mph N/A   Clear
4:54 PM 9.0 °F -7.3 °F -2.9 °F 59% 30.34 in 10.0 mi West 13.8 mph - N/A   Scattered Clouds
5:54 PM 8.1 °F -10.2 °F -2.0 °F 64% 30.33 in 10.0 mi WNW 17.3 mph - N/A   Mostly Cloudy
6:10 PM 8.6 °F -7.7 °F -2.2 °F 62% 30.23 in 10.0 mi WNW 13.8 mph - N/A   Mostly Cloudy
6:54 PM 8.1 °F -10.7 °F -0.9 °F 67% 30.33 in 7.0 mi NW 18.4 mph - 0.00 in Snow Light Snow
7:30 PM 8.6 °F -9.5 °F -0.4 °F 67% 30.22 in 7.0 mi NW 17.3 mph 27.6 mph 0.00 in   Overcast
7:54 PM 7.0 °F -9.1 °F -0.9 °F 70% 30.32 in 9.0 mi WNW 12.7 mph - 0.00 in   Overcast
8:54 PM 7.0 °F -11.0 °F -2.9 °F 64% 30.30 in 10.0 mi WNW 16.1 mph - N/A   Mostly Cloudy
9:13 PM 6.8 °F -8.6 °F -0.4 °F 72% 30.20 in 1.8 mi WNW 11.5 mph - 0.00 in Snow Light Snow
9:22 PM 6.8 °F -13.8 °F -0.4 °F 72% 30.19 in 3.0 mi WNW 21.9 mph 26.5 mph 0.00 in Snow Light Snow
9:34 PM 5.0 °F -14.2 °F -5.8 °F 61% 30.19 in 10.0 mi WNW 17.3 mph 31.1 mph 0.00 in   Scattered Clouds
9:54 PM 3.9 °F -15.6 °F -5.1 °F 66% 30.30 in 10.0 mi WNW 17.3 mph - 0.00 in   Clear
10:54 PM 1.9 °F -18.1 °F -7.1 °F 66% 30.30 in 10.0 mi WNW 17.3 mph 25.3 mph N/A   Clear
11:54 PM 1.0 °F -20.9 °F -8.0 °F 66% 30.30 in 10.0 mi WNW 20.7 mph - N/A   Clear